Location: ?????
(31.8092°N, 35.2590°E)
Time: 11:50:26
(UTC+00:00)

Cosmos 1455 Rocket - Pass Details

Date: 24 October 2021
Orbit: 604 x 630 km, 82.5° (Epoch: 26 November)

Event Time Altitude Azimuth Distance (km) Brightness Sun altitude
Rises 15:24:23 0° 192° (SSW) 2,879 6.8 -6.5°
Reaches altitude 10° 15:26:36 10° 195° (SSW) 1,981 6.0 -7.0°
Maximum altitude 15:30:57 65° 277° (W) 689 3.6 -7.9°
Drops below altitude 10° 15:35:23 10° 360° (N) 2,007 5.6 -8.8°
Sets 15:37:39 0° 3° (N) 2,920 6.4 -9.3°
